EW3012 Livadea RO current weather conditions

sailwx.info

Wind from 264 at 0 knots gusting 4

Air temperature 27.8° C
Dewpoint 17.0° C

Last reported at 2020-Aug-08 14:01 UTC.
Time now 2020-Aug-08 14:20 UTC

Location: N 45°12' E 025°55'.
View on Google Maps.

See reports from other nearby stations

  
Tides and Currents Weather Stations Pressure Air Temp Water Temp Dewpoint Dewpoint Depression Visibility Wind Speed Wind Dir Waves Ship Positions
date/time (UTC)wind fromknots sea level pressurealtimeterstation pressurevisibilityair tempwater tempwave heightnotes
2020-Aug-08 14:01 264 0 gusting 4 27.8
2020-Aug-08 13:51 277 28.3
2020-Aug-08 13:46 271 28.9
2020-Aug-08 13:41 221 0 gusting 3 28.9
2020-Aug-08 13:35 280 0 gusting 4 28.9
2020-Aug-08 13:30 017 0 gusting 4 29.4
2020-Aug-08 13:25 248 1 gusting 4 29.4
2020-Aug-08 13:20 274 1 gusting 4 29.4
2020-Aug-08 13:14 259 1 gusting 4 28.3
2020-Aug-08 13:09 269 0 gusting 2 27.8
2020-Aug-08 13:04 291 1 gusting 4 27.2
2020-Aug-08 12:58 288 1 gusting 5 27.2
2020-Aug-08 12:53 009 1 gusting 7 27.8
2020-Aug-08 12:48 332 2 gusting 7 27.8
2020-Aug-08 12:43 277 2 gusting 6 28.3
2020-Aug-08 12:37 269 1 gusting 6 28.9
2020-Aug-08 12:32 285 0 gusting 4 29.4
2020-Aug-08 12:27 249 0 gusting 4 30.0
2020-Aug-08 12:22 284 0 gusting 4 30.0
2020-Aug-08 12:17 252 0 gusting 4 30.6
2020-Aug-08 12:11 285 0 gusting 3 31.1
2020-Aug-08 12:06 285 0 gusting 3 31.1
2020-Aug-08 12:01 233 0 gusting 2 31.1
2020-Aug-08 11:55 311 0 gusting 5 31.1
2020-Aug-08 11:50 142 0 gusting 5 31.1
2020-Aug-08 11:45 177 0 gusting 2 31.7
2020-Aug-08 11:39 356 0 gusting 2 31.1
2020-Aug-08 11:34 259 0 gusting 3 31.7
2020-Aug-08 11:29 081 1 gusting 6 31.1
2020-Aug-08 11:24 068 2 gusting 6 31.1
2020-Aug-08 11:19 343 3 gusting 7 31.7
2020-Aug-08 11:13 065 2 gusting 7 31.7
2020-Aug-08 11:08 148 2 gusting 6 31.1
2020-Aug-08 11:03 018 2 gusting 6 31.1
2020-Aug-08 10:58 058 2 gusting 6 31.7
2020-Aug-08 10:53 233 1 gusting 6 32.8
2020-Aug-08 10:48 074 1 gusting 9 32.8
2020-Aug-08 10:42 153 2 gusting 11 32.2
2020-Aug-08 10:37 349 3 gusting 11 31.7
2020-Aug-08 10:32 283 2 gusting 9 32.2
2020-Aug-08 10:27 315 2 gusting 11 32.2
2020-Aug-08 10:21 117 2 gusting 11 32.2
2020-Aug-08 10:16 349 2 gusting 7 32.2
2020-Aug-08 10:11 105 1 gusting 7 32.2
2020-Aug-08 10:06 311 1 gusting 7 32.2
2020-Aug-08 10:01 179 2 gusting 9 31.7
2020-Aug-08 09:55 117 2 gusting 6 31.7
2020-Aug-08 09:50 074 1 gusting 8 31.7
2020-Aug-08 09:45 345 0 gusting 6 32.2
2020-Aug-08 09:40 155 1 gusting 7 32.2
2020-Aug-08 09:34 211 2 gusting 9 31.7
2020-Aug-08 09:29 298 3 gusting 9 31.7
2020-Aug-08 09:24 204 2 gusting 9 31.7
2020-Aug-08 09:19 350 3 gusting 9 31.7
2020-Aug-08 09:14 070 1 gusting 9 31.7
2020-Aug-08 09:08 134 1 gusting 6 31.7
2020-Aug-08 09:03 331 1 gusting 6 31.7
2020-Aug-08 08:58 051 0 gusting 6 31.7
2020-Aug-08 08:53 229 0 gusting 3 31.7
2020-Aug-08 08:48 055 1 gusting 5 31.7
2020-Aug-08 08:42 295 2 gusting 6 31.1
2020-Aug-08 08:37 112 1 gusting 6 31.1
2020-Aug-08 08:32 141 1 gusting 7 31.1
2020-Aug-08 08:26 121 1 gusting 8 31.1
2020-Aug-08 08:21 026 1 gusting 8 31.1
2020-Aug-08 08:16 012 1 gusting 6 31.1
2020-Aug-08 08:11 239 1 gusting 8 31.1
2020-Aug-08 08:06 259 1 gusting 8 30.6
2020-Aug-08 08:00 259 1 gusting 5 31.1
2020-Aug-08 07:55 248 1 gusting 6 30.6
2020-Aug-08 07:50 214 1 gusting 6 30.6
2020-Aug-08 07:45 314 1 gusting 6 30.6
2020-Aug-08 07:40 032 1 gusting 4 30.6
2020-Aug-08 07:34 225 1 gusting 5 30.6
2020-Aug-08 07:29 297 0 gusting 5 30.6
2020-Aug-08 07:24 287 0 gusting 5 30.6
2020-Aug-08 07:19 284 1 gusting 6 30.0
2020-Aug-08 07:14 224 2 gusting 10 30.0
2020-Aug-08 07:08 293 2 gusting 10 29.4
2020-Aug-08 07:03 263 0 gusting 6 30.0
2020-Aug-08 06:58 229 1 gusting 7 30.0
2020-Aug-08 06:53 138 1 gusting 7 29.4
2020-Aug-08 06:47 228 0 gusting 5 29.4
2020-Aug-08 06:42 245 1 gusting 5 29.4
2020-Aug-08 06:37 255 1 gusting 7 28.9
2020-Aug-08 06:32 259 0 gusting 7 28.9
2020-Aug-08 06:27 271 0 gusting 4 28.9
2020-Aug-08 06:21 305 1 gusting 7 28.9
2020-Aug-08 06:16 276 1 gusting 7 28.3
2020-Aug-08 06:11 256 0 gusting 5 28.3
2020-Aug-08 06:06 257 0 gusting 3 27.8
2020-Aug-08 06:00 255 0 gusting 2 27.2
2020-Aug-08 05:55 217 0 gusting 2 26.7
2020-Aug-08 05:50 326 0 gusting 3 26.1
2020-Aug-08 05:44 212 25.6
2020-Aug-08 05:39 271 25.0
2020-Aug-08 05:34 270 24.4
2020-Aug-08 05:29 283 0 gusting 1 23.9
2020-Aug-08 05:23 288 0 gusting 1 23.3
2020-Aug-08 05:18 269 0 gusting 1 22.8
2020-Aug-08 05:13 281 0 gusting 2 22.2
2020-Aug-08 05:08 269 0 gusting 2 21.7
2020-Aug-08 05:02 222 0 gusting 2 21.7
2020-Aug-08 04:57 273 0 gusting 1 21.1
2020-Aug-08 04:52 269 0 gusting 2 20.6
2020-Aug-08 04:46 223 0 gusting 2 20.6
2020-Aug-08 04:41 266 0 gusting 2 20.0
2020-Aug-08 04:36 262 0 gusting 2 19.4
2020-Aug-08 04:31 269 0 gusting 2 18.9
2020-Aug-08 04:26 236 0 gusting 2 18.9
2020-Aug-08 04:21 261 0 gusting 2 18.3
2020-Aug-08 04:15 335 1 gusting 5 18.3
2020-Aug-08 04:10 229 1 gusting 2 17.8
2020-Aug-08 04:05 243 1 gusting 2 17.8
2020-Aug-08 04:00 274 0 gusting 2 17.8
2020-Aug-08 03:54 217 0 gusting 2 17.8
2020-Aug-08 03:49 226 0 gusting 2 17.8
2020-Aug-08 03:44 246 0 gusting 3 17.8
2020-Aug-08 03:39 245 0 gusting 2 17.8
2020-Aug-08 03:34 262 1 gusting 3 17.8
2020-Aug-08 03:28 308 1 gusting 4 17.8
2020-Aug-08 03:23 265 1 gusting 4 17.8
2020-Aug-08 03:18 256 1 gusting 2 17.8
2020-Aug-08 03:13 281 1 gusting 3 17.2
2020-Aug-08 03:07 280 1 gusting 3 17.2
2020-Aug-08 03:02 268 1 gusting 3 17.2
2020-Aug-08 02:57 278 1 gusting 3 17.2
2020-Aug-08 02:52 236 1 gusting 3 17.2
2020-Aug-08 02:46 268 1 gusting 4 17.2
2020-Aug-08 02:41 273 1 gusting 4 17.2
2020-Aug-08 02:36 285 1 gusting 4 16.7
2020-Aug-08 02:31 262 0 gusting 4 16.7
2020-Aug-08 02:26 271 0 gusting 3 16.7
2020-Aug-08 02:21 249 0 gusting 3 16.7
2020-Aug-08 02:15 262 0 gusting 3 16.7
2020-Aug-08 02:10 269 0 gusting 1 16.7
2020-Aug-08 02:05 252 0 gusting 2 17.2
2020-Aug-08 02:00 278 1 gusting 2 17.8
2020-Aug-08 01:54 262 1 gusting 2 17.8
2020-Aug-08 01:49 271 1 gusting 2 18.3
2020-Aug-08 01:44 267 1 gusting 4 18.3
2020-Aug-08 01:39 250 1 gusting 4 18.9
2020-Aug-08 01:34 263 1 gusting 5 18.9
2020-Aug-08 01:29 243 2 gusting 5 19.4
2020-Aug-08 01:24 269 1 gusting 6 18.9
2020-Aug-08 01:19 260 1 gusting 6 18.9
2020-Aug-08 01:14 271 1 gusting 4 18.3
2020-Aug-08 01:08 271 1 gusting 3 17.8
2020-Aug-08 01:03 249 1 gusting 2 18.3
2020-Aug-08 00:58 270 1 gusting 3 18.3
2020-Aug-08 00:53 259 1 gusting 3 18.3
2020-Aug-08 00:47 269 1 gusting 3 18.3
2020-Aug-08 00:42 234 0 gusting 3 17.8
2020-Aug-08 00:37 239 0 gusting 2 17.8
2020-Aug-08 00:31 293 17.8
2020-Aug-08 00:26 335 0 gusting 2 17.8
2020-Aug-08 00:21 346 0 gusting 2 18.3
2020-Aug-08 00:16 255 0 gusting 4 18.3
2020-Aug-08 00:11 034 0 gusting 4 18.3
2020-Aug-08 00:06 348 0 gusting 2 18.3
2020-Aug-08 00:00 353 0 gusting 3 18.3
2020-Aug-07 23:55 257 0 gusting 3 18.9
2020-Aug-07 23:50 295 1 gusting 3 18.3
2020-Aug-07 23:44 278 1 gusting 3 18.9
2020-Aug-07 23:39 267 1 gusting 3 18.9
2020-Aug-07 23:34 264 1 gusting 3 18.9
2020-Aug-07 23:28 263 1 gusting 3 18.9
2020-Aug-07 23:23 271 1 gusting 3 19.4
2020-Aug-07 23:18 262 1 gusting 3 19.4
2020-Aug-07 23:12 269 1 gusting 4 19.4
2020-Aug-07 23:07 274 2 gusting 4 19.4
2020-Aug-07 23:02 280 2 gusting 4 19.4
2020-Aug-07 22:57 266 2 gusting 4 19.4
2020-Aug-07 22:52 274 1 gusting 5 19.4
2020-Aug-07 22:47 280 1 gusting 5 19.4
2020-Aug-07 22:42 268 0 gusting 3 19.4
2020-Aug-07 22:37 299 18.9
2020-Aug-07 22:31 240 19.4
2020-Aug-07 22:26 194 19.4
2020-Aug-07 22:21 195 0 gusting 1 19.4
2020-Aug-07 22:16 273 20.0
2020-Aug-07 22:10 266 0 gusting 2 20.0
2020-Aug-07 22:05 283 1 gusting 3 20.0
2020-Aug-07 22:00 295 1 gusting 3 20.0
2020-Aug-07 21:54 278 1 gusting 4 20.0
2020-Aug-07 21:49 246 1 gusting 5 20.0
2020-Aug-07 21:44 260 1 gusting 5 20.0
2020-Aug-07 21:39 269 2 gusting 6 20.0
2020-Aug-07 21:33 265 2 gusting 6 20.0
2020-Aug-07 21:28 264 1 gusting 3 20.0
2020-Aug-07 21:23 290 1 gusting 4 20.0
2020-Aug-07 21:18 270 1 gusting 4 20.0
2020-Aug-07 21:13 270 1 gusting 3 20.0
2020-Aug-07 21:08 280 1 gusting 3 20.6
2020-Aug-07 21:03 280 1 gusting 3 20.6
2020-Aug-07 20:58 281 1 gusting 3 20.6
2020-Aug-07 20:53 267 1 gusting 3 20.6
2020-Aug-07 20:47 269 0 gusting 3 20.6
2020-Aug-07 20:42 266 0 gusting 3 20.6
2020-Aug-07 20:37 249 0 gusting 3 20.6
2020-Aug-07 20:31 279 0 gusting 3 20.6
2020-Aug-07 20:26 250 0 gusting 5 20.6
2020-Aug-07 20:21 263 0 gusting 5 21.1
2020-Aug-07 20:16 269 0 gusting 1 21.1
2020-Aug-07 20:11 271 1 gusting 1 21.1
2020-Aug-07 19:58 291 0 21.7
2020-Aug-07 19:53 291 0 gusting 2 22.2
2020-Aug-07 19:48 290 0 gusting 4 22.2
2020-Aug-07 19:43 343 0 gusting 3 22.2
2020-Aug-07 19:37 348 0 gusting 0 22.2
2020-Aug-07 19:32 302 0 gusting 0 22.2
2020-Aug-07 19:13 283 22.2
2020-Aug-07 19:08 342 21.7
2020-Aug-07 19:03 323 22.2
2020-Aug-07 18:57 284 0 gusting 1 22.2
2020-Aug-07 18:52 291 22.2
2020-Aug-07 18:47 279 0 gusting 2 22.2
2020-Aug-07 18:42 276 0 gusting 2 22.8
2020-Aug-07 18:36 322 0 gusting 3 22.8
2020-Aug-07 18:31 290 0 gusting 3 22.2
2020-Aug-07 18:26 256 0 gusting 3 22.2
2020-Aug-07 18:21 240 0 gusting 3 22.2
2020-Aug-07 18:15 274 0 gusting 3 21.7
2020-Aug-07 18:10 315 0 gusting 2 21.7
2020-Aug-07 18:05 315 0 gusting 2 21.7
2020-Aug-07 18:00 331 0 gusting 2 21.7
2020-Aug-07 17:55 308 0 gusting 2 21.7
2020-Aug-07 17:49 259 0 gusting 5 21.7
2020-Aug-07 17:44 291 1 gusting 5 21.7
2020-Aug-07 17:39 260 0 gusting 4 21.7
2020-Aug-07 17:34 357 0 gusting 3 21.7
2020-Aug-07 17:28 266 0 gusting 6 21.7
2020-Aug-07 17:23 259 1 gusting 6 22.2
2020-Aug-07 17:17 269 1 gusting 9 22.8
2020-Aug-07 17:12 319 1 gusting 9 22.8
2020-Aug-07 17:07 258 1 gusting 6 22.8
2020-Aug-07 17:02 302 2 gusting 6 22.8
2020-Aug-07 16:57 264 2 gusting 6 22.2
2020-Aug-07 16:52 281 1 gusting 4 21.1
2020-Aug-07 16:47 342 1 gusting 2 20.0
2020-Aug-07 16:42 263 0 gusting 2 20.0
2020-Aug-07 16:37 256 0 gusting 2 20.0
2020-Aug-07 16:32 260 0 gusting 4 20.0
2020-Aug-07 16:27 301 20.0
2020-Aug-07 16:22 303 20.0
2020-Aug-07 16:17 290 20.6
2020-Aug-07 16:12 310 0 gusting 2 20.6
2020-Aug-07 16:07 301 1 gusting 5 21.1
2020-Aug-07 16:02 278 1 gusting 4 21.7
2020-Aug-07 15:57 257 0 gusting 6 22.2
2020-Aug-07 15:51 272 0 gusting 6 22.2
2020-Aug-07 15:46 210 1 gusting 6 22.8
2020-Aug-07 15:41 290 2 gusting 6 22.8
2020-Aug-07 15:35 228 1 gusting 8 23.3
2020-Aug-07 15:30 276 1 gusting 8 23.3
2020-Aug-07 15:25 231 2 gusting 10 23.9
2020-Aug-07 15:20 291 4 gusting 17 25.0
2020-Aug-07 15:10 150 1 gusting 5 31.1
2020-Aug-07 15:05 185 2 gusting 7 31.7
2020-Aug-07 15:00 038 2 gusting 7 31.7
2020-Aug-07 14:55 144 1 gusting 8 31.7
2020-Aug-07 14:49 236 1 gusting 8 32.2
2020-Aug-07 14:44 146 2 gusting 14 31.7
2020-Aug-07 14:39 281 3 gusting 14 31.7
2020-Aug-07 14:34 266 3 gusting 9 32.2
2020-Aug-07 14:28 145 2 gusting 8 32.2
2020-Aug-07 14:23 037 1 gusting 8 32.2
2020-Aug-07 14:18 046 1 gusting 8 32.2
2020-Aug-07 14:13 127 1 gusting 5 31.7
2020-Aug-07 14:07 240 1 gusting 9 31.7
2020-Aug-07 14:02 342 0 gusting 5 31.7
2020-Aug-07 13:57 016 0 gusting 4 31.7
2020-Aug-07 13:52 330 0 gusting 5 32.2
2020-Aug-07 13:47 285 1 gusting 7 32.2
2020-Aug-07 13:41 314 2 gusting 8 32.8
2020-Aug-07 13:37 059 2 gusting 8 32.8
2020-Aug-07 13:31 088 2 gusting 9 32.8
2020-Aug-07 13:26 018 3 gusting 10 32.2
2020-Aug-07 13:20 333 3 gusting 10 32.2
2020-Aug-07 13:15 142 2 gusting 9 32.2
2020-Aug-07 13:10 119 2 gusting 8 32.8
2020-Aug-07 13:05 074 2 gusting 10 32.8
2020-Aug-07 13:00 076 3 gusting 10 32.8
2020-Aug-07 12:55 172 3 gusting 9 32.2
2020-Aug-07 12:50 166 3 gusting 9 32.2
2020-Aug-07 12:45 120 3 gusting 11 32.2
2020-Aug-07 12:39 082 4 gusting 12 32.2
2020-Aug-07 12:34 148 4 gusting 12 32.2
2020-Aug-07 12:29 012 4 gusting 10 32.2
2020-Aug-07 12:24 093 3 gusting 14 32.2
2020-Aug-07 12:19 129 3 gusting 14 31.7
2020-Aug-07 12:13 169 3 gusting 8 31.1
2020-Aug-07 12:08 072 3 gusting 14 31.1
2020-Aug-07 12:03 344 3 gusting 14 31.7
2020-Aug-07 11:57 056 3 gusting 11 32.2
2020-Aug-07 11:52 104 3 gusting 11 31.7
2020-Aug-07 11:47 233 3 gusting 12 31.7
2020-Aug-07 11:41 347 3 gusting 12 31.7
2020-Aug-07 11:36 119 3 gusting 11 32.2
2020-Aug-07 11:31 149 3 gusting 11 31.7
2020-Aug-07 11:26 105 3 gusting 13 31.7
2020-Aug-07 11:21 057 2 gusting 13 31.7
2020-Aug-07 11:15 177 3 gusting 11 31.1
2020-Aug-07 11:10 107 3 gusting 11 31.1
2020-Aug-07 11:05 018 1 gusting 8 31.1
2020-Aug-07 11:00 058 2 gusting 10 30.6
2020-Aug-07 10:55 026 3 gusting 10 30.0
2020-Aug-07 10:50 107 3 gusting 9 30.6
2020-Aug-07 10:44 103 3 gusting 8 30.6
2020-Aug-07 10:39 009 2 gusting 10 31.1
2020-Aug-07 10:34 136 2 gusting 10 30.6
2020-Aug-07 10:29 070 3 gusting 9 30.6
2020-Aug-07 10:23 142 3 gusting 9 31.1
2020-Aug-07 10:18 072 2 gusting 9 31.7
2020-Aug-07 10:13 145 2 gusting 8 32.8
2020-Aug-07 10:08 246 2 gusting 9 32.2
2020-Aug-07 10:03 105 3 gusting 9 32.2
2020-Aug-07 09:58 126 3 gusting 11 31.7
2020-Aug-07 09:52 123 3 gusting 9 31.7
2020-Aug-07 09:47 142 3 gusting 9 31.1
2020-Aug-07 09:42 130 3 gusting 7 31.1
2020-Aug-07 09:36 128 2 gusting 11 31.1
2020-Aug-07 09:31 336 2 gusting 11 31.1
2020-Aug-07 09:26 121 2 gusting 7 31.1
2020-Aug-07 09:21 149 3 gusting 12 30.6
2020-Aug-07 09:16 070 4 gusting 12 30.6
2020-Aug-07 09:10 248 4 gusting 10 30.6
2020-Aug-07 09:05 089 4 gusting 12 30.6
2020-Aug-07 09:00 030 3 gusting 12 30.6
2020-Aug-07 08:55 068 2 gusting 10 30.6
2020-Aug-07 08:49 131 3 gusting 8 30.6
2020-Aug-07 08:44 122 2 gusting 12 30.6
2020-Aug-07 08:39 148 3 gusting 13 30.6
2020-Aug-07 08:34 037 3 gusting 13 30.0
2020-Aug-07 08:29 323 1 gusting 11 30.6
2020-Aug-07 08:23 117 1 gusting 6 30.6
2020-Aug-07 08:18 284 2 gusting 9 30.0
2020-Aug-07 08:13 098 3 gusting 9 29.4
2020-Aug-07 08:08 042 3 gusting 6 29.4
2020-Aug-07 08:03 136 4 gusting 10 29.4
2020-Aug-07 07:58 052 3 gusting 10 29.4
2020-Aug-07 07:52 077 2 gusting 10 30.0
2020-Aug-07 07:47 345 2 gusting 10 30.0
2020-Aug-07 07:41 098 1 gusting 5 30.0
2020-Aug-07 07:36 323 2 gusting 6 29.4
2020-Aug-07 07:31 191 2 gusting 8 29.4
2020-Aug-07 07:26 023 2 gusting 8 28.9
2020-Aug-07 07:21 115 2 gusting 10 28.9
2020-Aug-07 07:16 108 3 gusting 10 28.9
2020-Aug-07 07:11 120 2 gusting 6 28.9
2020-Aug-07 07:06 148 1 gusting 6 28.9
2020-Aug-07 07:01 058 1 gusting 6 28.9
2020-Aug-07 06:56 150 2 gusting 6 28.3
2020-Aug-07 06:51 259 2 gusting 6 28.3
2020-Aug-07 06:45 333 2 gusting 8 28.3
2020-Aug-07 06:40 128 2 gusting 8 28.3
2020-Aug-07 06:35 281 1 gusting 7 28.3
2020-Aug-07 06:29 134 0 gusting 7 28.3
2020-Aug-07 06:24 108 0 gusting 4 27.8
2020-Aug-07 06:19 018 0 gusting 4 27.8
2020-Aug-07 06:14 077 0 gusting 4 27.8
2020-Aug-07 06:08 351 0 gusting 4 27.2
2020-Aug-07 06:03 354 0 gusting 4 26.7
2020-Aug-07 05:58 349 26.1
2020-Aug-07 05:53 355 0 gusting 2 25.6
2020-Aug-07 05:48 276 0 gusting 1 25.6
2020-Aug-07 05:43 036 0 gusting 1 25.0
2020-Aug-07 05:38 25.0
2020-Aug-07 05:32 242 0 gusting 5 24.4
2020-Aug-07 05:27 004 23.3
2020-Aug-07 05:17 027 22.8
2020-Aug-07 05:12 028 22.8
2020-Aug-07 05:06 028 21.7
2020-Aug-07 05:01 336 21.1
2020-Aug-07 04:56 301 20.6
2020-Aug-07 04:50 270 20.6
2020-Aug-07 04:45 346 19.4
2020-Aug-07 04:40 269 0 gusting 3 19.4
2020-Aug-07 04:35 262 0 gusting 3 18.3
2020-Aug-07 04:30 264 0 gusting 2 17.8
2020-Aug-07 04:24 283 16.7
2020-Aug-07 04:19 255 16.1
2020-Aug-07 04:14 273 16.1
2020-Aug-07 04:09 273 0 gusting 2 16.1
2020-Aug-07 04:03 242 16.1
2020-Aug-07 03:58 243 0 gusting 2 16.1
2020-Aug-07 03:53 294 0 gusting 3 16.1
2020-Aug-07 03:48 266 0 gusting 3 16.1
2020-Aug-07 03:42 253 0 gusting 3 16.1
2020-Aug-07 03:37 256 0 gusting 3 16.1
2020-Aug-07 03:32 239 0 gusting 3 15.6
2020-Aug-07 03:27 281 0 gusting 3 15.6
2020-Aug-07 03:22 252 0 gusting 4 15.6
2020-Aug-07 03:16 261 0 gusting 4 15.6
2020-Aug-07 03:11 274 15.6
2020-Aug-07 03:05 325 0 gusting 2 15.6
2020-Aug-07 03:00 325 0 gusting 2 15.6
2020-Aug-07 02:55 309 0 gusting 3 15.6
2020-Aug-07 02:50 261 1 gusting 3 15.6
2020-Aug-07 02:45 261 1 gusting 2 15.6
2020-Aug-07 02:40 283 1 gusting 4 16.1
2020-Aug-07 02:34 278 1 gusting 4 16.1
2020-Aug-07 02:29 249 1 gusting 3 16.1
2020-Aug-07 02:24 281 1 gusting 3 16.1
2020-Aug-07 02:19 281 1 gusting 3 16.1
2020-Aug-07 02:13 260 1 gusting 2 16.1
2020-Aug-07 02:09 290 0 gusting 2 16.1
2020-Aug-07 02:03 287 0 gusting 2 15.6
2020-Aug-07 01:58 269 0 gusting 2 15.6
2020-Aug-07 01:53 296 0 gusting 1 15.6
2020-Aug-07 01:48 278 15.6
2020-Aug-07 01:43 283 15.0
2020-Aug-07 01:37 315 15.6
2020-Aug-07 01:32 333 15.6
2020-Aug-07 01:27 335 16.1
2020-Aug-07 01:22 298 0 gusting 3 16.7
2020-Aug-07 01:17 294 1 gusting 4 16.7
2020-Aug-07 01:12 269 2 gusting 6 16.7
2020-Aug-07 01:07 278 2 gusting 6 16.7
2020-Aug-07 01:01 260 2 gusting 6 16.7
2020-Aug-07 00:56 264 3 gusting 6 16.7
2020-Aug-07 00:51 268 3 gusting 6 16.7
2020-Aug-07 00:46 255 2 gusting 6 16.1
2020-Aug-07 00:40 238 1 gusting 5 16.1
2020-Aug-07 00:35 287 1 gusting 4 15.6
2020-Aug-07 00:30 259 0 gusting 3 15.6
2020-Aug-07 00:24 264 15.0
2020-Aug-07 00:19 023 15.6
2020-Aug-07 00:14 023 0 gusting 5 15.6
2020-Aug-07 00:08 284 1 gusting 5 16.1
2020-Aug-07 00:03 278 1 gusting 5 15.6
2020-Aug-06 23:58 300 0 gusting 3 15.0
2020-Aug-06 23:53 257 14.4
2020-Aug-06 23:47 259 14.4
2020-Aug-06 23:42 218 14.4
2020-Aug-06 23:37 218 14.4
2020-Aug-06 23:32 218 14.4
2020-Aug-06 23:27 218 14.4
2020-Aug-06 23:22 280 15.0
2020-Aug-06 23:16 326 15.0
2020-Aug-06 23:11 268 0 gusting 3 15.0
2020-Aug-06 23:06 268 0 gusting 3 15.0
2020-Aug-06 23:01 267 14.4
2020-Aug-06 22:56 243 14.4
2020-Aug-06 22:50 243 14.4
2020-Aug-06 22:45 243 14.4
2020-Aug-06 22:40 243 14.4
2020-Aug-06 22:35 243 14.4
2020-Aug-06 22:29 231 15.0
2020-Aug-06 22:24 231 15.0
2020-Aug-06 22:19 231 15.0
2020-Aug-06 22:14 231 15.0
2020-Aug-06 22:09 256 15.0
2020-Aug-06 22:03 276 15.0
2020-Aug-06 21:58 007 15.0
2020-Aug-06 21:53 006 15.0
2020-Aug-06 21:48 006 15.0
2020-Aug-06 21:43 006 15.6
2020-Aug-06 21:37 006 15.6
2020-Aug-06 21:32 006 15.6
2020-Aug-06 21:27 006 15.6
2020-Aug-06 21:22 006 15.6
2020-Aug-06 21:17 006 15.6
2020-Aug-06 21:12 006 15.6
2020-Aug-06 21:07 006 16.1
2020-Aug-06 21:01 006 16.1
2020-Aug-06 20:56 006 16.1
2020-Aug-06 20:51 006 16.1
2020-Aug-06 20:46 006 16.1
2020-Aug-06 20:41 006 16.7
2020-Aug-06 20:36 006 16.7
2020-Aug-06 20:31 006 16.7
2020-Aug-06 20:25 006 16.7
2020-Aug-06 20:20 006 16.7
2020-Aug-06 20:15 006 17.2
2020-Aug-06 20:10 006 17.2
2020-Aug-06 20:05 291 17.2
2020-Aug-06 19:59 290 17.8
2020-Aug-06 19:54 291 17.8
2020-Aug-06 19:49 290 17.8
2020-Aug-06 19:44 080 18.3
2020-Aug-06 19:39 080 18.3
2020-Aug-06 19:34 081 18.9
2020-Aug-06 19:29 080 18.9
2020-Aug-06 19:23 080 19.4
2020-Aug-06 19:18 080 19.4
2020-Aug-06 19:13 080 19.4
2020-Aug-06 19:07 080 20.0
2020-Aug-06 19:02 080 20.0
2020-Aug-06 18:57 080 20.6
2020-Aug-06 18:52 082 20.6
2020-Aug-06 18:47 082 21.1
2020-Aug-06 18:41 082 21.1
2020-Aug-06 18:36 309 21.7
2020-Aug-06 18:31 073 21.7
2020-Aug-06 18:25 340 22.8
2020-Aug-06 18:20 342 23.3
2020-Aug-06 18:15 344 23.3
2020-Aug-06 18:10 310 23.9
2020-Aug-06 18:04 297 24.4
2020-Aug-06 17:59 027 0 gusting 5 25.0
2020-Aug-06 17:53 018 0 gusting 5 25.6
2020-Aug-06 17:48 039 0 gusting 3 25.6
2020-Aug-06 17:43 082 0 gusting 5 25.6
2020-Aug-06 17:37 025 25.6
2020-Aug-06 17:32 319 25.6
2020-Aug-06 17:27 051 25.6
2020-Aug-06 17:22 058 0 gusting 4 26.1
2020-Aug-06 17:17 084 0 gusting 4 26.1
2020-Aug-06 17:12 026 26.1
2020-Aug-06 17:06 046 26.7
2020-Aug-06 17:01 041 26.7
2020-Aug-06 16:56 053 27.2
2020-Aug-06 16:51 126 27.8
2020-Aug-06 16:46 026 27.8
2020-Aug-06 16:40 309 0 gusting 4 28.3
2020-Aug-06 16:35 358 0 gusting 4 28.3
2020-Aug-06 16:30 332 0 gusting 4 28.3
2020-Aug-06 16:24 006 0 gusting 3 28.9
2020-Aug-06 16:19 065 0 gusting 3 28.9
2020-Aug-06 16:14 023 0 gusting 3 29.4
2020-Aug-06 16:03 115 0 gusting 5 29.4
2020-Aug-06 15:58 110 0 gusting 6 29.4
2020-Aug-06 15:53 077 1 gusting 7 30.0
2020-Aug-06 15:48 191 1 gusting 7 30.0
2020-Aug-06 15:43 139 1 gusting 4 30.0
2020-Aug-06 15:37 155 1 gusting 5 30.0
2020-Aug-06 15:32 110 1 gusting 7 30.0
2020-Aug-06 15:27 131 2 gusting 9 30.0
2020-Aug-06 15:22 113 2 gusting 9 30.0
2020-Aug-06 15:16 142 2 gusting 8 30.6
2020-Aug-06 15:11 018 2 gusting 9 30.6
2020-Aug-06 15:06 034 2 gusting 9 30.6
2020-Aug-06 15:01 267 3 gusting 11 30.6
2020-Aug-06 14:55 156 3 gusting 11 30.6
2020-Aug-06 14:50 285 2 gusting 11 30.6
2020-Aug-06 14:45 243 2 gusting 11 30.6
2020-Aug-06 14:40 324 3 gusting 10 30.6
2020-Aug-06 14:35 104 3 gusting 12 30.6
2020-Aug-06 14:30 319 3 gusting 12 30.6
2020-Aug-06 14:25 337 3 gusting 13 30.6
2020-Aug-06 14:20 094 3 gusting 13 30.6
2020-Aug-06 14:14 163 3 gusting 11 30.6
2020-Aug-06 14:09 108 3 gusting 8 30.6
2020-Aug-06 14:04 077 2 gusting 8 30.6